Temp
5 5 6 6 7 8 8 9 10 10 10 10 11 11 10 9 9 8 8 8 8 8 8 8 9 8 7 8 9 9 9 10 9 10 9 11 12 12 13 13 14 14 15
4 5 5 6 7 7 7 7 7 6 7 7 7 7 7 7 7 7 7 6 6 6 6 6 6 6 7 7 7 8 7 6 6 3 5 8 11 12 12 13 12 13 14
5 5 5 6 6 6 6 6 6 6 6 6 6 6 6 6 6 6 6 5 5 5 5 5 5 5 5 5 5 4 4 1 1 2 3 6 10 10 12 12 12 12 12
5 5 5 5 5 5 5 5 5 5 5 5 5 5 5 5 5 5 5 5 5 5 5 4 4 4 3 3 3 3 1 -1 0 1 2 3 4 5 8 10 11 13 14
5 5 5 5 5 5 5 5 5 5 4 4 4 4 3 3 3 3 3 4 4 4 4 3 3 3 2 1 0 0 -0 -1 -1 -0 0 1 2 3 5 7 10 11 13
5 5 4 4 4 4 4 4 3 3 3 3 3 2 2 2 1 1 1 0 0 1 2 2 2 2 1 0 -2 -2 -2 -1 -1 -1 -1 -0 1 2 4 6 7 10 11
5 4 4 3 3 3 3 3 3 3 3 2 2 2 1 1 0 0 0 0 -0 -1 -1 0 1 0 -0 -2 -3 -3 -2 -2 -2 -1 -1 -0 0 1 3 4 5 7 10
5 4 4 3 3 3 3 3 3 3 2 2 1 1 0 -0 -1 -1 -1 -2 -3 -4 -3 -3 -3 -3 -3 -4 -4 -4 -4 -3 -3 -2 -1 -0 1 1 2 3 5 7 9
4 4 4 3 3 2 2 2 1 1 0 0 -0 -1 -1 -1 -1 -1 -2 -4 -3 -4 -3 -4 -5 -4 -5 -5 -5 -4 -3 -3 -3 -3 -2 -1 -1 -1 0 2 4 5 8
4 4 3 3 2 2 1 1 0 0 -0 -1 -1 -1 -1 -1 -2 -3 -4 -4 -3 -4 -4 -5 -5 -6 -6 -6 -6 -6 -5 -6 -4 -4 -4 -2 -2 -2 -1 1 3 5 7
4 4 3 2 2 1 0 0 -0 -1 -1 -2 -1 -2 -2 -2 -3 -4 -4 -4 -4 -5 -6 -6 -6 -7 -7 -7 -7 -8 -8 -8 -6 -5 -5 -3 -2 -3 -2 1 3 6 7
4 3 3 2 1 0 0 -0 -1 -2 -2 -2 -3 -2 -3 -4 -4 -5 -5 -6 -6 -5 -6 -6 -7 -8 -8 -8 -8 -8 -9 -8 -8 -7 -6 -4 -3 -3 -3 0 4 6 7
3 3 2 1 0 -0 -0 -1 -1 -2 -2 -3 -3 -3 -4 -5 -5 -6 -6 -6 -7 -7 -6 -7 -9 -9 -9 -8 -8 -10 -9 -9 -8 -8 -6 -5 -5 -5 -3 -1 2 5 7
3 2 1 0 -0 -0 -1 -1 -2 -2 -3 -3 -3 -4 -5 -5 -5 -7 -6 -6 -7 -7 -7 -8 -9 -9 -9 -9 -9 -10 -9 -9 -8 -8 -7 -6 -6 -6 -5 -3 -1 3 5
2 1 1 -0 -0 -1 -2 -2 -2 -3 -3 -3 -4 -5 -5 -6 -6 -6 -7 -7 -7 -7 -7 -9 -9 -10 -10 -10 -10 -10 -9 -10 -9 -8 -8 -7 -7 -6 -5 -5 -4 -2 4
1 1 0 -0 -1 -2 -2 -2 -3 -3 -4 -4 -5 -6 -6 -6 -7 -7 -7 -7 -7 -7 -8 -10 -10 -11 -10 -11 -11 -10 -10 -10 -9 -8 -8 -8 -7 -7 -5 -6 -5 -3 1
1 0 -0 -1 -2 -2 -2 -3 -3 -4 -5 -5 -6 -6 -7 -7 -8 -8 -9 -9 -9 -10 -10 -10 -10 -11 -11 -11 -12 -11 -11 -10 -10 -10 -9 -9 -9 -8 -7 -6 -5 -3 -3
1 -0 -1 -2 -2 -3 -3 -3 -4 -5 -5 -6 -7 -7 -8 -8 -10 -10 -10 -10 -11 -11 -11 -11 -11 -11 -12 -12 -12 -12 -11 -11 -11 -9 -10 -10 -10 -9 -8 -6 -5 -6 -3
-0 -1 -2 -2 -2 -3 -3 -4 -5 -5 -6 -7 -8 -9 -9 -10 -11 -11 -11 -11 -11 -11 -11 -11 -12 -12 -12 -12 -12 -12 -12 -12 -11 -9 -10 -10 -10 -10 -10 -7 -6 -5 -4
-1 -2 -2 -2 -3 -3 -4 -5 -5 -6 -7 -8 -9 -10 -10 -10 -11 -12 -12 -12 -12 -12 -11 -12 -12 -13 -13 -13 -12 -12 -12 -12 -12 -12 -10 -10 -11 -10 -9 -9 -9 -7 -7
-2 -2 -2 -3 -4 -5 -5 -6 -7 -8 -8 -9 -9 -9 -10 -10 -12 -12 -12 -12 -12 -12 -12 -12 -13 -13 -13 -13 -13 -13 -13 -13 -12 -13 -12 -11 -12 -11 -10 -9 -9 -9 -7
-3 -3 -3 -4 -5 -6 -7 -7 -7 -8 -9 -9 -9 -10 -10 -11 -12 -12 -12 -13 -13 -13 -13 -13 -13 -13 -14 -14 -13 -14 -14 -13 -11 -12 -12 -12 -11 -11 -10 -9 -10 -8 -7
-3 -4 -5 -6 -7 -7 -7 -8 -8 -9 -9 -10 -10 -10 -11 -11 -12 -12 -12 -12 -13 -13 -13 -13 -13 -14 -14 -14 -14 -14 -13 -13 -11 -12 -11 -11 -11 -11 -10 -10 -10 -9 -9
-4 -5 -6 -7 -7 -8 -8 -9 -9 -9 -10 -10 -10 -10 -11 -11 -11 -12 -13 -13 -14 -13 -13 -14 -14 -15 -14 -14 -14 -14 -14 -13 -12 -12 -11 -11 -10 -10 -11 -11 -11 -11 -11
-5 -6 -7 -8 -8 -9 -9 -9 -9 -10 -10 -10 -11 -11 -11 -12 -12 -12 -13 -14 -14 -14 -14 -15 -15 -15 -15 -15 -15 -16 -16 -14 -13 -12 -11 -11 -10 -10 -11 -11 -11 -11 -11
-6 -7 -8 -8 -9 -9 -9 -10 -10 -10 -10 -11 -11 -12 -12 -12 -13 -13 -12 -13 -14 -14 -14 -15 -15 -15 -16 -16 -16 -16 -15 -14 -13 -13 -13 -13 -13 -13 -14 -14 -12 -12 -12
Height
1551 1551 1550 1549 1548 1547 1546 1544 1542 1540 1539 1536 1533 1530 1528 1525 1523 1519 1516 1512 1508 1504 1500 1497 1493 1490 1487 1484 1481 1477 1474 1473 1472 1466 1463 1458 1459 1457 1460 1464 1463 1466 1466
1549 1550 1550 1550 1548 1546 1544 1541 1539 1537 1533 1531 1528 1526 1524 1522 1519 1516 1512 1507 1504 1500 1496 1493 1490 1487 1482 1478 1475 1472 1467 1466 1467 1465 1460 1452 1449 1448 1441 1455 1457 1456 1458
1545 1547 1547 1547 1546 1544 1541 1539 1537 1535 1533 1531 1528 1526 1522 1519 1516 1512 1508 1503 1499 1495 1492 1489 1485 1482 1478 1473 1469 1466 1463 1459 1461 1463 1463 1455 1447 1446 1441 1439 1447 1448 1447
1544 1545 1545 1545 1543 1542 1540 1538 1537 1534 1532 1529 1526 1522 1518 1516 1513 1510 1506 1502 1498 1494 1489 1486 1481 1477 1472 1468 1464 1461 1458 1456 1454 1455 1455 1453 1451 1447 1440 1437 1434 1438 1437
1541 1542 1543 1543 1542 1541 1539 1538 1536 1534 1532 1528 1525 1521 1517 1513 1509 1505 1501 1497 1493 1490 1485 1481 1476 1471 1467 1463 1458 1455 1453 1452 1449 1448 1445 1444 1442 1440 1435 1425 1428 1423 1423
1538 1539 1540 1541 1540 1538 1537 1535 1534 1532 1530 1526 1522 1517 1512 1508 1505 1501 1495 1490 1486 1482 1479 1475 1471 1467 1461 1457 1453 1450 1449 1445 1442 1440 1438 1436 1434 1432 1430 1424 1419 1418 1414
1535 1537 1538 1539 1537 1536 1535 1534 1532 1530 1527 1524 1520 1514 1510 1507 1503 1498 1493 1488 1484 1480 1474 1469 1465 1461 1457 1452 1449 1445 1441 1438 1435 1430 1427 1425 1424 1423 1420 1418 1410 1408 1407
1532 1534 1535 1535 1535 1535 1534 1532 1530 1528 1525 1521 1516 1512 1509 1504 1500 1495 1490 1485 1480 1474 1468 1464 1460 1456 1451 1447 1443 1439 1435 1430 1424 1420 1417 1413 1411 1410 1409 1407 1405 1398 1396
1528 1530 1531 1532 1533 1533 1531 1530 1528 1525 1521 1518 1514 1511 1506 1501 1496 1492 1487 1482 1476 1470 1464 1460 1456 1451 1447 1443 1438 1432 1427 1421 1415 1411 1407 1403 1399 1397 1395 1394 1392 1389 1386
1523 1525 1527 1528 1529 1529 1528 1526 1524 1521 1518 1515 1511 1506 1502 1497 1492 1488 1484 1478 1471 1465 1460 1456 1451 1446 1442 1438 1432 1426 1420 1413 1408 1403 1397 1393 1389 1385 1381 1379 1377 1376 1373
1518 1521 1523 1525 1526 1526 1524 1523 1521 1518 1515 1511 1507 1503 1499 1494 1490 1486 1480 1473 1467 1461 1456 1452 1447 1442 1437 1432 1426 1421 1414 1407 1399 1394 1388 1383 1380 1374 1368 1363 1361 1359 1361
1514 1517 1520 1521 1522 1522 1521 1519 1518 1515 1512 1508 1504 1499 1495 1492 1487 1481 1475 1469 1464 1458 1453 1448 1443 1438 1433 1427 1421 1414 1408 1401 1393 1387 1382 1375 1370 1364 1358 1350 1345 1344 1344
1510 1513 1516 1517 1518 1518 1518 1517 1514 1512 1508 1504 1500 1496 1493 1488 1483 1478 1471 1466 1461 1455 1450 1445 1441 1436 1429 1422 1416 1411 1404 1397 1390 1384 1377 1370 1364 1356 1348 1339 1332 1330 1331
1506 1510 1513 1514 1514 1515 1514 1512 1510 1508 1504 1500 1497 1494 1490 1484 1479 1474 1468 1463 1458 1452 1447 1443 1438 1433 1426 1419 1412 1406 1400 1393 1386 1379 1372 1366 1359 1351 1342 1332 1324 1318 1314
1504 1509 1510 1511 1511 1511 1510 1507 1506 1504 1501 1497 1495 1491 1486 1481 1476 1471 1466 1461 1455 1450 1445 1441 1436 1430 1423 1416 1409 1403 1396 1387 1379 1374 1367 1361 1355 1346 1339 1329 1321 1312 1307
1499 1504 1507 1508 1508 1508 1506 1504 1503 1500 1497 1495 1492 1488 1483 1478 1473 1468 1462 1458 1453 1448 1443 1438 1433 1427 1420 1414 1408 1401 1392 1383 1375 1368 1363 1357 1350 1342 1333 1328 1321 1312 1298
1496 1500 1503 1504 1505 1505 1503 1500 1499 1497 1495 1492 1489 1485 1480 1475 1470 1465 1460 1455 1450 1446 1441 1437 1431 1425 1418 1411 1405 1398 1388 1380 1373 1366 1360 1353 1347 1338 1330 1324 1315 1308 1309
1494 1498 1501 1501 1501 1501 1499 1497 1496 1494 1492 1489 1486 1483 1478 1473 1469 1464 1460 1455 1449 1444 1440 1435 1430 1423 1417 1409 1402 1394 1386 1378 1371 1364 1358 1352 1344 1336 1326 1319 1310 1315 1297
1492 1496 1498 1498 1498 1497 1495 1494 1493 1491 1489 1487 1484 1480 1476 1472 1467 1463 1459 1454 1449 1444 1439 1435 1429 1422 1415 1408 1401 1392 1384 1376 1369 1361 1356 1348 1340 1333 1326 1316 1308 1298 1295
1490 1494 1495 1495 1494 1493 1492 1492 1490 1489 1487 1485 1481 1478 1474 1470 1466 1462 1458 1453 1448 1444 1439 1434 1428 1422 1415 1408 1401 1393 1384 1376 1367 1360 1353 1347 1340 1332 1325 1320 1314 1303 1296
1489 1491 1492 1491 1490 1491 1490 1489 1489 1487 1485 1482 1479 1476 1473 1469 1465 1461 1457 1452 1448 1443 1438 1433 1428 1421 1415 1408 1402 1394 1386 1377 1368 1361 1352 1346 1342 1337 1331 1320 1314 1311 1303
1486 1487 1488 1488 1489 1489 1489 1488 1487 1485 1483 1480 1477 1474 1471 1467 1463 1460 1455 1451 1447 1442 1437 1432 1426 1420 1414 1408 1402 1394 1387 1379 1371 1363 1356 1348 1341 1336 1328 1320 1317 1312 1305
1483 1484 1485 1486 1487 1487 1487 1486 1485 1484 1481 1479 1476 1472 1469 1465 1461 1458 1453 1449 1445 1442 1437 1432 1426 1419 1413 1408 1401 1394 1386 1380 1373 1366 1359 1351 1343 1335 1328 1324 1319 1313 1311
1482 1482 1484 1485 1486 1486 1486 1485 1483 1482 1480 1477 1474 1471 1467 1464 1460 1456 1452 1448 1445 1442 1437 1432 1426 1419 1413 1407 1400 1393 1386 1380 1373 1367 1361 1353 1346 1339 1334 1328 1322 1315 1310
1479 1481 1482 1483 1484 1484 1484 1483 1481 1480 1478 1475 1472 1469 1466 1462 1458 1455 1451 1448 1446 1442 1437 1432 1427 1419 1412 1408 1402 1395 1387 1381 1375 1368 1361 1354 1347 1341 1336 1331 1324 1318 1313
1477 1479 1481 1482 1482 1482 1482 1481 1479 1478 1476 1473 1470 1467 1464 1460 1457 1453 1451 1449 1445 1441 1436 1432 1426 1419 1414 1407 1401 1394 1387 1381 1376 1369 1362 1356 1351 1347 1344 1337 1329 1324 1320
Wind_Speed
12 10 10 10 11 13 14 15 15 16 17 17 18 19 20 21 20 19 19 19 20 21 22 24 28 29 28 28 30 30 30 29 27 33 34 43 37 45 50 47 49 49 44
11 8 7 8 11 13 17 20 22 23 25 26 25 25 25 24 23 23 24 24 23 23 23 24 25 27 32 33 29 31 35 31 24 22 29 27 33 40 46 48 46 47 46
12 8 5 6 11 16 20 21 22 23 24 24 24 24 25 26 27 26 26 26 26 25 26 27 28 29 30 32 34 31 29 31 31 24 15 12 12 20 25 40 52 44 45
11 7 4 6 11 15 17 19 20 22 23 24 26 27 28 28 27 26 25 24 24 23 23 26 28 31 31 30 30 30 30 26 29 28 22 24 32 25 21 21 32 43 37
12 8 3 4 9 12 14 16 17 18 19 21 23 25 26 27 29 28 27 26 25 24 23 26 29 31 31 30 27 28 27 26 28 26 26 31 31 29 34 35 33 33 45
14 10 4 1 5 10 13 14 16 17 19 21 23 25 28 29 30 30 29 30 28 28 27 27 28 29 31 30 28 24 24 24 26 32 34 32 31 27 29 32 37 39 35
16 12 7 2 5 9 11 13 16 18 21 22 24 26 28 29 29 29 29 29 28 27 27 29 29 29 29 28 24 22 24 30 35 35 33 33 33 33 36 38 41 41 36
17 14 8 2 4 7 10 12 15 17 20 22 24 25 27 28 28 28 27 26 26 26 28 28 28 27 27 25 25 31 32 32 34 34 34 36 36 33 36 40 37 39 36
19 15 10 5 4 6 9 12 14 17 20 22 24 27 28 28 28 27 26 24 25 26 26 26 28 27 25 22 31 32 34 35 35 35 33 34 33 35 34 38 45 45 39
21 18 13 6 5 6 9 12 15 18 21 23 26 29 30 29 28 26 24 24 27 26 26 26 26 26 24 25 30 35 34 33 37 33 32 32 32 34 37 40 46 48 51
23 18 13 8 5 6 9 12 16 19 22 25 28 30 29 28 25 24 25 25 27 26 25 27 27 25 25 26 29 29 30 33 34 30 30 31 30 31 40 40 44 47 51
21 17 12 7 4 6 10 13 16 19 23 26 28 29 28 26 24 25 25 25 25 25 25 28 27 24 26 26 28 30 31 32 35 31 30 30 31 34 35 34 38 44 51
21 17 12 7 4 6 10 12 16 20 24 27 29 28 26 25 25 25 25 26 26 25 24 27 25 24 28 28 29 29 31 31 33 30 30 30 31 34 35 34 32 39 44
21 16 12 7 4 7 9 12 17 21 25 27 28 26 25 25 25 24 25 26 26 26 25 26 24 24 29 27 30 32 32 33 32 28 28 28 29 32 34 32 29 34 37
19 15 11 7 5 7 9 13 18 22 25 26 25 24 24 24 25 25 26 27 27 26 26 25 25 25 29 26 31 33 35 33 30 28 27 27 27 26 27 27 27 24 25
20 15 10 6 5 6 10 15 20 23 24 23 22 23 23 24 25 26 27 28 27 27 26 25 25 28 29 29 30 33 36 31 29 28 27 27 29 29 26 25 17 17 13
18 14 10 6 5 7 12 17 21 22 21 20 21 22 23 24 25 25 26 28 27 26 25 24 25 29 27 30 29 34 32 28 26 26 24 26 29 29 29 26 17 14 12
17 14 10 5 3 9 14 17 18 18 19 19 20 21 23 24 24 23 25 27 25 24 24 24 24 28 26 29 31 35 29 26 26 24 23 24 28 31 31 30 23 16 13
16 12 7 2 6 11 15 15 16 17 17 18 19 20 22 24 23 22 24 24 24 24 24 21 26 27 26 29 31 35 30 27 28 25 24 24 28 30 31 30 27 24 17
13 9 4 4 8 11 12 13 14 15 16 18 19 19 21 23 19 21 22 22 22 23 23 21 25 26 26 27 31 33 31 30 32 27 27 27 28 28 28 26 25 26 25
11 6 4 6 8 9 10 11 12 14 16 18 18 19 21 22 18 20 21 21 22 23 23 22 25 25 25 27 30 31 30 31 31 28 29 30 28 24 21 21 23 22 21
9 5 4 4 5 7 8 10 12 14 16 17 18 19 20 22 20 20 21 21 21 22 23 25 26 26 25 26 30 30 29 29 30 30 28 29 27 22 21 20 19 18 18
7 3 1 1 3 6 8 10 12 14 15 16 17 19 20 21 21 21 22 22 19 21 22 25 27 29 26 27 29 31 29 28 28 27 26 25 23 23 22 20 20 18 18
5 3 2 0 3 5 7 9 12 13 14 15 17 19 20 21 21 21 20 20 18 20 22 24 27 28 27 29 31 30 28 28 29 27 25 25 24 24 24 24 24 24 23
6 5 3 1 2 5 8 10 12 12 13 15 17 19 21 21 21 20 20 17 15 18 20 21 23 27 28 29 27 27 25 26 26 26 25 26 27 28 28 27 27 27 26
7 5 4 2 2 5 7 9 11 12 13 16 18 20 20 21 21 21 20 15 15 18 19 21 23 26 23 25 24 25 25 25 23 23 25 27 28 27 26 27 28 28 27
Wind_Direction
121 108 90 71 53 38 26 17 8 4 357 351 347 344 346 345 341 337 330 326 325 325 323 321 321 324 325 320 315 309 305 298 294 285 287 272 273 266 261 256 249 250 246
141 127 93 60 41 28 20 16 14 11 8 6 4 359 354 352 349 347 344 342 340 336 333 331 329 327 322 320 317 310 309 307 305 303 296 290 293 267 256 263 260 251 247
162 150 114 60 34 23 17 13 9 7 4 3 1 358 355 356 353 352 349 346 344 341 338 337 335 331 325 319 316 313 306 306 305 306 287 301 285 298 266 247 257 256 250
175 163 117 53 30 20 14 10 8 4 0 357 357 357 355 352 349 346 345 343 341 339 336 336 335 332 327 321 316 312 309 304 305 305 293 272 269 286 286 270 256 245 246
184 176 144 48 22 12 9 8 5 0 356 355 354 352 351 348 344 343 342 344 342 341 338 338 338 335 329 323 318 315 312 306 300 300 295 296 285 277 270 276 268 248 246
188 187 177 69 8 6 6 3 1 358 356 355 352 351 349 347 344 342 342 341 341 340 339 337 338 336 329 326 325 322 314 305 292 293 296 292 283 277 271 272 270 263 252
193 194 199 210 3 358 356 357 357 353 353 351 350 350 346 343 341 339 336 335 333 334 335 336 335 335 330 327 328 316 298 297 297 298 296 290 287 282 274 270 270 265 262
196 199 200 217 327 339 348 350 348 348 348 349 350 347 343 341 339 336 334 331 332 333 337 335 333 330 330 332 311 308 309 311 309 303 294 291 287 285 274 266 264 266 259
196 198 201 223 302 322 338 342 345 349 350 348 347 347 344 342 339 337 335 333 336 334 335 334 330 329 334 327 316 320 319 318 317 311 303 293 288 286 283 265 256 255 254
195 199 204 219 271 315 331 343 346 348 347 346 346 345 343 341 338 337 336 337 337 338 337 335 332 332 331 324 322 324 324 321 319 314 308 300 292 297 291 276 250 255 247
197 198 201 222 264 309 340 341 342 345 345 344 345 343 341 340 339 338 338 340 339 339 338 337 336 331 331 328 327 320 325 324 324 318 315 306 303 304 302 281 256 256 245
196 196 204 220 259 321 335 337 340 342 343 343 342 342 341 340 341 342 343 343 341 339 339 340 338 334 335 333 334 325 328 329 329 325 320 314 310 307 311 297 259 261 247
192 194 200 211 256 316 328 334 337 340 340 341 341 342 342 343 344 344 346 346 343 342 340 341 338 335 337 335 336 331 330 330 330 329 326 319 317 313 316 309 281 255 253
191 191 194 207 252 303 319 332 335 337 339 340 341 342 344 347 347 346 348 349 347 345 343 342 339 338 337 337 337 336 334 328 331 334 336 327 324 323 321 317 307 275 259
182 189 192 210 258 302 320 333 334 337 338 340 341 343 346 348 349 349 350 350 348 347 346 342 342 341 343 339 339 338 333 329 333 337 342 342 336 337 328 331 323 318 266
179 181 194 222 270 301 326 335 335 338 340 341 343 345 347 350 351 351 351 350 349 348 347 345 344 343 344 343 341 340 334 333 336 337 342 346 346 338 337 341 331 335 323
171 181 197 215 259 313 330 335 336 338 340 343 345 346 349 352 352 351 351 349 349 348 347 345 346 344 344 346 346 342 340 339 340 339 341 348 343 343 335 339 357 349 335
172 185 194 215 290 324 331 332 333 339 342 345 348 349 352 353 351 352 351 349 348 348 346 346 345 345 344 347 350 346 344 341 342 344 342 343 346 351 344 341 341 357 10
174 182 192 224 314 322 327 331 338 343 345 348 351 353 353 352 351 351 350 350 347 347 346 345 346 347 346 348 351 352 347 346 345 349 347 345 347 348 352 348 350 351 12
169 176 182 285 311 322 330 341 344 347 350 352 353 352 353 352 352 350 348 348 348 346 345 343 347 348 347 349 354 354 351 350 349 349 350 352 352 349 349 358 358 354 0
164 172 237 294 316 333 343 344 348 351 354 354 354 354 353 353 351 349 349 349 347 346 347 345 347 350 350 350 355 355 356 353 353 352 351 350 352 349 346 354 2 0 360
168 206 262 310 337 343 346 351 353 357 356 356 356 356 355 353 351 350 349 350 349 349 349 346 348 350 351 352 352 354 356 358 359 358 355 354 354 358 358 2 358 6 12
188 204 275 335 351 351 355 357 358 357 357 357 358 357 355 354 354 352 351 353 353 352 351 349 348 348 351 353 351 352 355 359 2 2 360 0 6 12 10 12 16 14 24
175 177 170 64 3 0 2 2 359 359 359 360 359 357 355 356 356 357 357 358 356 356 350 350 349 347 350 351 350 349 352 355 358 359 3 8 14 20 22 24 24 25 27
175 172 161 99 21 13 6 2 360 2 3 2 359 358 358 358 358 0 4 0 353 353 351 351 348 347 349 348 347 348 350 353 355 354 2 9 14 16 19 19 20 25 24
171 161 148 111 37 17 7 3 3 2 2 1 1 360 357 358 358 357 354 357 349 346 346 347 350 347 347 346 350 350 355 352 356 2 9 12 14 13 11 10 17 18 20